Torna al catalogo

STARLINK-30796

AttivoComunicazioniVLEO
NORAD 58189·PAYLOAD·🇺🇸 United States

Lanciato Oct 30, 2023 da Cape Canaveral Space Force Station

Loading…

Prossimi Passaggi (prossime 24 ore)

TLE

AggiornatoSource: CelesTrak SupGP

Epoca: Sep 14, 2026, 21:35 UTC

1 58189C 23167Q   26257.89979167 -.00010624  00000+0 -38486-3 0  2571
2 58189  43.0011 154.5430 0001228 269.2703 170.0325 15.27579059    15

Traccia STARLINK-30796 in tempo reale con AllMySat

Download on the App Store